Regional Weather Roundup
Issued by NWS Goodland, KS

Home | Current Version | Previous Version | Graphics & Text | Print | Product List | Glossary On
Versions: 1 2 3 4 5 6 7 8 9 10 11 12 13 14 15 16 17 18 19 20 21 22 23 24 25 26 27 28 29 30 31 32 33 34 35 36 37 38 39 40 41 42 43 44 45 46 47 48 49 50
637
ASUS43 KGLD 260859
RWRGLD

GOODLAND FORECAST AREA HOURLY WEATHER ROUNDUP
NATIONAL WEATHER SERVICE GOODLAND KS
300 AM MDT WED JUL 26 2017

...OFFICIAL OBSERVATIONS...

CITY           SKY/WX    TMP DP  RH WIND       PRES   REMARKS
GOODLAND KS    CLOUDY    72  62  71 W8        29.98R
HILL CITY KS   CLOUDY    82  67  60 S12       29.89F
IMPERIAL NEB   PTCLDY    71  64  78 NE6       29.94S
MCCOOK NEB     CLOUDY    76  69  79 E12       29.88F
AKRON CO       PTCLDY    68  58  70 N12       30.09R
BURLINGTON CO  CLOUDY    69  61  75 W10       30.03F
LIMON CO       CLOUDY    64  59  83 NW13      30.14R
$$

...UNOFFICIAL OBSERVATIONS...

CITY           SKY/WX    TMP DP  RH WIND       PRES   REMARKS
LENORA KS        N/A     80  32  17 MISG        N/A
NORTON KS      CLEAR     77  63  61 SE9       29.88F
SHARON SPRINGS   N/A     69  65  88 W6          N/A
TRENTON NEB      N/A     73  32  22 CALM        N/A
KIT CARSON CO    N/A     72  60  65 MISG        N/A
YUMA CO        FAIR      70  54  56 NW13      30.03S
$$




USA.gov is the U.S. government's official web portal to all federal, state and local government web resources and services.